Regional Weather Roundup
Issued by NWS

Home | Current Version | Previous Version | Text Only | Print | Product List | Glossary Off
Versions: 1 2 3 4 5 6 7 8 9 10 11 12 13 14 15 16 17 18 19 20 21 22 23 24 25 26 27 28 29 30 31 32 33 34 35 36 37 38 39 40 41 42 43 44 45 46 47 48 49 50

181
ASUS43 KLMK 230610
RWRKY
KENTUCKY REGIONAL WEATHER ROUNDUP
NATIONAL WEATHER SERVICE LOUISVILLE KY
200 AM EDT TUE MAY 23 2017

NOTE "FAIR" INDICATES FEW OR NO CLOUDS BELOW 12,000 FEET
WITH NO SIGNIFICANT WEATHER AND/OR OBSTRUCTIONS TO VISIBILITY.

KYZ001>023-026-027-061>063-070>075-230700-
WESTERN AND SOUTH CENTRAL KENTUCKY

CITY           SKY/WX    TMP DP  RH WIND       PRES   REMARKS
PADUCAH        PTCLDY    59  52  77 CALM      29.91F
HENDERSON      PTCLDY    62  53  72 CALM      29.93
OWENSBORO      MOCLDY    60  53  77 E3        29.94F
HOPKINSVILLE   CLOUDY    62  55  76 E7        29.90F
BOWLING GREEN  CLOUDY    63  55  75 NE3       29.93F
GLASGOW        CLOUDY    59  55  84 E6        29.93F
$$

KYZ024-025-028>034-038-045-046-053-230700-
NORTH CENTRAL KENTUCKY

CITY           SKY/WX    TMP DP  RH WIND       PRES   REMARKS
LOUISVILLE/SDF CLOUDY    63  50  62 CALM      29.95F
LOUISVILLE/LOU CLOUDY    61  53  75 CALM      29.96F
FORT KNOX      CLOUDY    57  54  88 CALM      29.93F
$$

KYZ035>037-039>044-047>052-055>060-089>105-230700-
NORTHEAST KENTUCKY

CITY           SKY/WX    TMP DP  RH WIND       PRES   REMARKS
LEXINGTON      CLOUDY    59  50  72 E6        29.97F
COVINGTON      CLOUDY    57  46  66 E3        29.97F
FRANKFORT      CLOUDY    56  51  84 CALM      29.95F
$$

KYZ054-064>069-076>088-106>120-230700-
SOUTHEAST KENTUCKY

CITY           SKY/WX    TMP DP  RH WIND       PRES   REMARKS
JACKSON        CLOUDY    57  50  77 CALM      29.97F
LONDON         CLOUDY    58  51  78 NE3       29.95F
SOMERSET       CLOUDY    57  50  77 CALM      29.96F
MIDDLESBORO    CLOUDY    58  57  97 CALM      29.96F
MONTICELLO     CLOUDY    59  56  89 NW9       29.96F
$$





USA.gov is the U.S. government's official web portal to all federal, state and local government web resources and services.